GW7043 Weather Reports


time (UTC)temp
C
wind
direction
speed
KPH
gust
KPH
rain 1hr
cm
rain 24hr
cm
rain mn
cm
humidity
%
barometer
mb
20260506124429 18 213 6.4 8.0 0.00 0.00 0.00 87 1015.3
20260506123927 18 209 1.6 8.0 0.00 0.00 0.00 87 1015.3
20260506123425 18 224 8.0 9.7 0.00 0.00 0.00 88 1015.2
20260506122922 18 179 4.8 6.4 0.00 0.00 0.00 88 1015.0
20260506122419 18 194 6.4 8.0 0.00 0.00 0.00 87 1015.0
20260506121918 18 227 4.8 9.7 0.00 0.00 0.00 88 1015.0
20260506121414 18 187 3.2 6.4 0.00 0.00 0.00 88 1014.9
20260506120911 18 202 4.8 6.4 0.00 0.00 0.00 88 1015.0
20260506120408 18 192 3.2 8.0 0.00 0.00 0.00 88 1015.1
20260506115906 18 187 6.4 9.7 0.00 0.00 0.00 88 1014.8
20260506115404 18 204 6.4 14.5 0.00 0.00 0.00 88 1014.8
20260506114902 18 180 8.0 9.7 0.00 0.00 0.00 88 1014.8
20260506114359 18 183 4.8 8.0 0.00 0.00 0.00 88 1014.6
20260506113858 18 204 3.2 8.0 0.00 0.00 0.00 88 1014.7
20260506113355 18 202 3.2 6.4 0.00 0.00 0.00 88 1014.4
20260506112851 17 186 3.2 6.4 0.00 0.00 0.00 88 1014.6
20260506112348 17 198 1.6 3.2 0.00 0.00 0.00 88 1014.5
20260506111845 17 219 4.8 6.4 0.00 0.00 0.00 88 1014.4
20260506111344 17 196 3.2 6.4 0.00 0.00 0.00 88 1014.5
20260506110841 17 209 4.8 4.8 0.00 0.00 0.00 88 1014.3
20260506110338 17 169 4.8 4.8 0.00 0.00 0.00 88 1014.2
20260506105835 17 224 4.8 4.8 0.00 0.00 0.00 87 1014.4
20260506105331 17 178 6.4 8.0 0.00 0.00 0.00 87 1014.3
20260506104829 17 201 3.2 6.4 0.00 0.00 0.00 87 1014.4
20260506104326 17 178 3.2 6.4 0.00 0.00 0.00 87 1014.2
20260506103824 17 184 6.4 6.4 0.00 0.00 0.00 87 1014.0
20260506103321 17 184 3.2 4.8 0.00 0.00 0.00 87 1014.0
20260506102819 17 212 4.8 6.4 0.00 0.00 0.00 86 1013.7
20260506102316 17 212 3.2 3.2 0.00 0.00 0.00 86 1014.1
20260506101814 17 193 1.6 6.4 0.00 0.00 0.00 86 1013.5
20260506101309 17 227 3.2 6.4 0.00 0.00 0.00 86 1013.6
20260506100808 17 157 3.2 3.2 0.00 0.00 0.00 86 1013.5
20260506100306 17 153 3.2 3.2 0.00 0.00 0.00 86 1013.6
20260506095804 17 220 1.6 4.8 0.00 0.00 0.00 85 1013.4
20260506095300 17 202 3.2 3.2 0.00 0.00 0.00 85 1013.3
20260506094757 17 174 1.6 3.2 0.00 0.00 0.00 85 1013.3
20260506094255 17 200 1.6 3.2 0.00 0.00 0.00 85 1013.4
20260506093754 17 218 3.2 6.4 0.00 0.00 0.00 85 1013.4
20260506093250 17 212 3.2 4.8 0.00 0.00 0.00 85 1013.4
20260506092749 17 208 4.8 4.8 0.00 0.00 0.00 85 1013.2
20260506092246 17 214 3.2 4.8 0.00 0.00 0.00 84 1013.5
20260506091743 17 225 3.2 3.2 0.00 0.00 0.00 83 1013.3
20260506091240 17 144 0.0 3.2 0.00 0.00 0.00 83 1013.1
20260506090738 17 235 1.6 3.2 0.00 0.00 0.00 82 1013.2
20260506090235 17 206 0.0 1.6 0.00 0.00 0.00 82 1013.1
20260506085732 17 154 0.0 1.6 0.00 0.00 0.00 82 1013.1
20260506085228 17 182 0.0 3.2 0.00 0.00 0.00 82 1013.0
20260506084725 17 172 0.0 3.2 0.00 0.00 0.00 81 1013.1
20260506084221 17 168 1.6 3.2 0.00 0.00 0.00 81 1013.3
20260506083718 17 184 1.6 3.2 0.00 0.00 0.00 80 1013.3
20260506083216 17 235 3.2 3.2 0.00 0.00 0.00 80 1013.3
20260506082713 17 169 1.6 1.6 0.00 0.00 0.00 80 1013.1
20260506082208 17 225 3.2 3.2 0.00 0.00 0.00 79 1013.1
20260506081706 17 202 0.0 1.6 0.00 0.00 0.00 79 1013.1
20260506081204 17 191 0.0 3.2 0.00 0.00 0.00 79 1013.1
20260506080701 17 155 1.6 1.6 0.00 0.00 0.00 78 1013.0
20260506080158 16 188 1.6 3.2 0.00 0.00 0.00 78 1013.3
20260506073142 16 199 3.2 3.2 0.00 0.00 0.00 80 1013.5
20260506072638 16 211 0.0 3.2 0.00 0.00 0.00 79 1013.3
20260506072136 16 173 3.2 3.2 0.00 0.00 0.00 79 1013.4
20260506071633 16 145 1.6 3.2 0.00 0.00 0.00 78 1013.6
20260506071131 16 196 1.6 3.2 0.00 0.00 0.00 78 1013.6
20260506070628 17 196 0.0 4.8 0.00 0.00 0.00 77 1013.7
20260506070125 17 182 0.0 3.2 0.00 0.00 0.00 76 1013.9
20260506062103 18 189 1.6 3.2 0.00 0.00 0.00 72 1013.9
20260506061558 18 195 0.0 3.2 0.00 0.00 0.00 72 1014.0
20260506061056 18 185 3.2 17.7 0.00 0.00 0.00 70 1014.1
20260506060554 18 220 0.0 4.8 0.00 0.00 0.00 70 1014.4
20260506051023 18 193 3.2 4.8 0.00 0.00 0.00 64 1013.6
20260506050521 18 184 1.6 3.2 0.00 0.00 0.00 62 1013.6
20260506045011 18 158 1.6 3.2 0.00 0.00 0.00 61 1013.7
20260506044509 18 178 1.6 3.2 0.00 0.00 0.00 59 1013.6
20260506044006 18 172 1.6 3.2 0.00 0.00 0.00 59 1014.1
20260506043503 18 191 1.6 3.2 0.00 0.00 0.00 58 1014.1
20260506043001 18 205 3.2 4.8 0.00 0.00 0.00 58 1014.1
20260506042500 18 185 3.2 4.8 0.00 0.00 0.00 59 1014.1
20260506041957 18 210 3.2 4.8 0.00 0.00 0.00 58 1014.0
20260506041455 18 238 3.2 3.2 0.00 0.00 0.00 58 1014.0
20260506040952 18 210 3.2 3.2 0.00 0.00 0.00 58 1013.9
20260506040450 18 187 3.2 3.2 0.00 0.00 0.00 58 1013.7
20260506035946 18 212 1.6 3.2 0.00 0.00 0.00 57 1013.7
20260506035443 18 236 0.0 3.2 0.00 0.00 0.00 58 1013.7
20260506034939 18 179 3.2 3.2 0.00 0.00 0.00 57 1013.7
20260506034438 18 167 3.2 4.8 0.00 0.00 0.00 57 1013.9
20260506033934 18 167 3.2 3.2 0.00 0.00 0.00 57 1013.9
20260506033432 18 205 1.6 3.2 0.00 0.00 0.00 58 1014.0
20260506032928 18 213 3.2 4.8 0.00 0.00 0.00 58 1014.3
20260506032425 18 232 3.2 4.8 0.00 0.00 0.00 58 1014.2
20260506031922 18 185 1.6 3.2 0.00 0.00 0.00 56 1014.1
20260506031419 18 205 3.2 4.8 0.00 0.00 0.00 56 1013.9
20260506030917 18 216 1.6 3.2 0.00 0.00 0.00 57 1014.0
20260506030415 18 176 3.2 3.2 0.00 0.00 0.00 57 1013.7
20260506025911 18 192 1.6 3.2 0.00 0.00 0.00 59 1014.0
20260506025408 18 213 3.2 3.2 0.00 0.00 0.00 55 1014.0
20260506024905 18 190 1.6 3.2 0.00 0.00 0.00 56 1014.1
20260506024402 19 194 1.6 4.8 0.00 0.00 0.00 59 1014.0
20260506023857 19 204 0.0 3.2 0.00 0.00 0.00 57 1014.0
20260506023355 19 212 1.6 3.2 0.00 0.00 0.00 55 1014.1
20260506022851 19 236 0.0 1.6 0.00 0.00 0.00 54 1014.0
20260506022349 19 280 1.6 3.2 0.00 0.00 0.00 54 1014.0
20260506021847 19 190 1.6 3.2 0.00 0.00 0.00 53 1013.9
20260506021344 19 192 3.2 3.2 0.00 0.00 0.00 55 1013.9
20260506020840 19 217 3.2 3.2 0.00 0.00 0.00 54 1014.0
20260506020338 19 193 3.2 3.2 0.00 0.00 0.00 54 1014.0
20260506015836 20 196 1.6 3.2 0.00 0.00 0.00 54 1013.9
20260506015333 20 191 1.6 3.2 0.00 0.00 0.00 54 1013.9
20260506014829 20 207 3.2 3.2 0.00 0.00 0.00 53 1013.9
20260506014326 20 219 1.6 3.2 0.00 0.00 0.00 52 1013.6
20260506013823 20 219 1.6 3.2 0.00 0.00 0.00 52 1013.9
20260506013320 20 191 3.2 3.2 0.00 0.00 0.00 51 1013.9
20260506012817 20 231 3.2 3.2 0.00 0.00 0.00 51 1013.9
20260506012314 20 212 3.2 3.2 0.00 0.00 0.00 51 1013.7
20260506011811 20 214 1.6 3.2 0.00 0.00 0.00 49 1013.6
20260506011308 21 190 1.6 3.2 0.00 0.00 0.00 49 1013.6
20260506010805 21 193 1.6 3.2 0.00 0.00 0.00 49 1013.5
20260506010303 21 187 1.6 3.2 0.00 0.00 0.00 45 1013.4
20260506005800 22 182 3.2 3.2 0.00 0.00 0.00 46 1013.5
20260506005256 22 222 0.0 3.2 0.00 0.00 0.00 43 1013.6
20260506004752 22 221 3.2 3.2 0.00 0.00 0.00 41 1013.7
20260506004250 22 212 3.2 3.2 0.00 0.00 0.00 41 1013.6
20260506003746 22 171 3.2 3.2 0.00 0.00 0.00 40 1013.6
20260506003243 22 187 3.2 3.2 0.00 0.00 0.00 40 1014.0
20260506002739 22 174 4.8 6.4 0.00 0.00 0.00 39 1014.2
20260506002235 22 191 3.2 6.4 0.00 0.00 0.00 39 1014.0
20260506001731 23 180 3.2 16.1 0.00 0.00 0.00 39 1013.9
20260506001229 23 178 3.2 8.0 0.00 0.00 0.00 40 1013.7
20260506000725 23 188 4.8 9.7 0.00 0.00 0.00 38 1013.7
20260506000223 23 185 3.2 4.8 0.00 0.00 0.00 39 1014.0
20260505235720 23 187 4.8 6.4 0.00 0.00 0.00 39 1014.0
20260505235218 23 192 3.2 12.9 0.00 0.00 0.00 38 1013.7
20260505234714 23 194 4.8 9.7 0.00 0.00 0.00 38 1013.6
20260505234212 23 171 6.4 9.7 0.00 0.00 0.00 37 1013.9
20260505233708 23 195 8.0 8.0 0.00 0.00 0.00 37 1013.7
20260505233206 23 226 6.4 12.9 0.00 0.00 0.00 37 1013.9
20260505232703 23 227 11.3 12.9 0.00 0.00 0.00 37 1014.1
20260505232201 24 231 9.7 11.3 0.00 0.00 0.00 36 1013.7
20260505231657 24 180 11.3 12.9 0.00 0.00 0.00 36 1013.7
20260505231156 24 168 4.8 11.3 0.00 0.00 0.00 36 1013.7
20260505230654 24 233 8.0 9.7 0.00 0.00 0.00 37 1014.0
20260505230150 25 187 12.9 16.1 0.00 0.00 0.00 36 1013.6
20260505225646 24 258 4.8 11.3 0.00 0.00 0.00 37 1013.4
20260505225143 25 180 4.8 14.5 0.00 0.00 0.00 36 1013.5
20260505224639 25 179 11.3 14.5 0.00 0.00 0.00 35 1013.9
20260505224137 25 232 14.5 17.7 0.00 0.00 0.00 34 1013.4
20260505223635 25 220 8.0 19.3 0.00 0.00 0.00 34 1013.3
20260505223130 25 193 8.0 17.7 0.00 0.00 0.00 33 1013.5
20260505222626 25 206 11.3 16.1 0.00 0.00 0.00 34 1013.4
20260505222123 25 179 11.3 11.3 0.00 0.00 0.00 35 1013.5
20260505221620 25 193 11.3 19.3 0.00 0.00 0.00 34 1013.3
20260505221116 26 183 3.2 12.9 0.00 0.00 0.00 34 1013.4
20260505220614 25 162 6.4 8.0 0.00 0.00 0.00 35 1013.2
20260505220112 26 183 9.7 17.7 0.00 0.00 0.00 33 1013.2
20260505215609 26 200 14.5 19.3 0.00 0.00 0.00 34 1013.3
20260505215107 26 210 14.5 16.1 0.00 0.00 0.00 34 1013.1
20260505214605 26 193 4.8 12.9 0.00 0.00 0.00 35 1013.3
20260505214102 26 177 3.2 14.5 0.00 0.00 0.00 35 1013.5
20260505213559 26 231 3.2 9.7 0.00 0.00 0.00 34 1013.4
20260505213056 26 186 4.8 6.4 0.00 0.00 0.00 33 1013.5
20260505212552 26 230 6.4 12.9 0.00 0.00 0.00 33 1013.6
20260505212050 26 168 6.4 14.5 0.00 0.00 0.00 33 1013.5
20260505211546 26 146 6.4 9.7 0.00 0.00 0.00 32 1013.3
20260505211043 26 174 4.8 17.7 0.00 0.00 0.00 34 1013.6
20260505210539 26 154 4.8 14.5 0.00 0.00 0.00 35 1013.5
20260505210037 26 169 8.0 12.9 0.00 0.00 0.00 34 1013.5
20260505205535 27 211 12.9 16.1 0.00 0.00 0.00 33 1013.5
20260505205032 27 177 9.7 12.9 0.00 0.00 0.00 35 1013.6
20260505204529 27 232 4.8 8.0 0.00 0.00 0.00 35 1013.9
20260505204026 27 205 3.2 6.4 0.00 0.00 0.00 34 1013.7
20260505203523 26 168 3.2 9.7 0.00 0.00 0.00 36 1013.7
20260505203020 26 193 6.4 8.0 0.00 0.00 0.00 36 1014.1
20260505202516 26 189 8.0 12.9 0.00 0.00 0.00 36 1014.1
20260505202012 26 231 6.4 11.3 0.00 0.00 0.00 34 1014.2
20260505201510 26 201 6.4 14.5 0.00 0.00 0.00 36 1014.2
20260505201007 26 201 11.3 11.3 0.00 0.00 0.00 34 1014.3
20260505200505 26 204 3.2 6.4 0.00 0.00 0.00 35 1014.3
20260505200000 25 148 6.4 9.7 0.00 0.00 0.00 34 1014.3
20260505195457 26 166 6.4 19.3 0.00 0.00 0.00 36 1014.3
20260505194955 26 211 6.4 8.0 0.00 0.00 0.00 36 1014.3
20260505194452 25 162 4.8 12.9 0.00 0.00 0.00 35 1014.7
20260505193952 25 164 4.8 11.3 0.00 0.00 0.00 37 1014.6
20260505193450 25 172 6.4 9.7 0.00 0.00 0.00 37 1014.6
20260505192947 25 175 6.4 14.5 0.00 0.00 0.00 38 1014.8
20260505192446 25 255 6.4 14.5 0.00 0.00 0.00 36 1014.8
20260505191942 25 165 4.8 6.4 0.00 0.00 0.00 38 1014.8
20260505191441 25 178 6.4 12.9 0.00 0.00 0.00 38 1014.6
20260505190937 25 210 6.4 14.5 0.00 0.00 0.00 35 1014.7
20260505190433 25 211 8.0 14.5 0.00 0.00 0.00 36 1014.7
20260505185928 25 207 12.9 17.7 0.00 0.00 0.00 35 1014.9
20260505185426 25 268 9.7 22.5 0.00 0.00 0.00 38 1014.9
20260505184922 25 225 12.9 14.5 0.00 0.00 0.00 38 1015.3
20260505184419 25 232 9.7 14.5 0.00 0.00 0.00 41 1015.3
20260505183916 25 131 9.7 11.3 0.00 0.00 0.00 39 1015.3
20260505183413 24 197 8.0 19.3 0.00 0.00 0.00 41 1015.4
20260505182909 25 169 12.9 14.5 0.00 0.00 0.00 42 1015.3
20260505182406 24 207 14.5 14.5 0.00 0.00 0.00 40 1015.4
20260505181903 24 187 3.2 8.0 0.00 0.00 0.00 40 1015.6
20260505181400 25 203 8.0 19.3 0.00 0.00 0.00 40 1015.5
20260505180857 25 148 6.4 6.4 0.00 0.00 0.00 40 1015.5
20260505180353 24 148 6.4 9.7 0.00 0.00 0.00 43 1015.6
20260505175850 24 206 6.4 17.7 0.00 0.00 0.00 40 1015.8
20260505175346 24 206 9.7 16.1 0.00 0.00 0.00 39 1016.0
20260505174843 24 131 9.7 12.9 0.00 0.00 0.00 40 1016.1
20260505174341 24 215 3.2 12.9 0.00 0.00 0.00 41 1016.2
20260505173836 23 272 1.6 8.0 0.00 0.00 0.00 41 1016.2
20260505173333 24 219 4.8 9.7 0.00 0.00 0.00 42 1016.2
20260505172830 24 247 4.8 14.5 0.00 0.00 0.00 41 1016.1
20260505172328 23 162 4.8 11.3 0.00 0.00 0.00 43 1016.2
20260505171827 23 199 6.4 9.7 0.00 0.00 0.00 44 1016.1
20260505171324 23 157 6.4 9.7 0.00 0.00 0.00 43 1016.2
20260505170821 23 187 17.7 20.9 0.00 0.00 0.00 43 1016.2
20260505170318 23 358 4.8 9.7 0.00 0.00 0.00 43 1016.0
20260505165813 23 179 3.2 11.3 0.00 0.00 0.00 43 1016.1
20260505165309 23 153 4.8 9.7 0.00 0.00 0.00 45 1016.4
20260505164805 23 168 9.7 12.9 0.00 0.00 0.00 45 1016.3
20260505164302 23 182 1.6 14.5 0.00 0.00 0.00 44 1016.6
20260505163800 23 143 9.7 9.7 0.00 0.00 0.00 44 1016.3
20260505163259 23 149 6.4 11.3 0.00 0.00 0.00 46 1016.4
20260505162756 22 201 6.4 9.7 0.00 0.00 0.00 50 1016.2
20260505162252 22 268 11.3 20.9 0.00 0.00 0.00 46 1016.5
20260505161750 22 178 8.0 11.3 0.00 0.00 0.00 47 1016.5
20260505161247 22 237 9.7 16.1 0.00 0.00 0.00 47 1016.5
20260505160744 22 234 16.1 19.3 0.00 0.00 0.00 46 1016.3
20260505160242 22 249 8.0 17.7 0.00 0.00 0.00 47 1016.8
20260505153221 22 164 4.8 11.3 0.00 0.00 0.00 52 1016.8
20260505152718 22 202 12.9 14.5 0.00 0.00 0.00 49 1016.8
20260505152214 22 223 8.0 16.1 0.00 0.00 0.00 51 1017.0
20260505151709 22 183 3.2 8.0 0.00 0.00 0.00 52 1016.9
20260505151207 21 224 4.8 16.1 0.00 0.00 0.00 52 1016.9
20260505150702 21 147 8.0 9.7 0.00 0.00 0.00 52 1016.6
20260505150200 21 222 6.4 6.4 0.00 0.00 0.00 53 1016.6
20260505140633 18 207 4.8 8.0 0.00 0.00 0.00 65 1016.3
20260505140130 18 175 3.2 6.4 0.00 0.00 0.00 67 1016.2